Regional Weather Roundup
Issued by NWS

Home | Current Version | Previous Version | Text Only | Print | Product List | Glossary Off
Versions: 1 2 3 4 5 6 7 8 9 10 11 12 13 14 15 16 17 18 19 20 21 22 23 24 25 26 27 28 29 30 31 32 33 34 35 36 37 38 39 40 41 42 43 44 45 46 47 48 49 50

981
ASUS43 KDMX 090901
RWRIA

WEATHER ROUNDUP FOR IOWA
NATIONAL WEATHER SERVICE DES MOINES IA
300 AM CST FRI DEC 09 2016

NOTE: "FAIR" INDICATES FEW OR NO CLOUDS BELOW 12,000 FEET WITH NO
SIGNIFICANT WEATHER AND/OR OBSTRUCTIONS TO VISIBILITY.

* - THESE STATIONS ARE NOT NWS STATIONS...THUS NOT UNDER NWS
QUALITY CONTROL.  THEY ALSO DO NOT REPORT WEATHER SUCH
AS PRECIPITATION OR FOG.

IAZ001>003-012>014-020>022-031>034-043>046-091000-
   NORTHWEST IOWA

CITY           SKY/WX    TMP DP  RH WIND       PRES   REMARKS
CARROLL *      CLEAR      9   5  85 NW7       30.60S WCI  -3
CHEROKEE *     CLEAR      5   3  91 CALM      30.61S
DENISON *      CLEAR      7   3  85 W3        30.60S
LE MARS *      CLEAR      5   1  85 CALM      30.64S
ORANGE CITY *  CLEAR      3   1  92 CALM      30.59R
SHELDON *      CLEAR      3   1  92 NW6       30.57S WCI  -8
SIOUX CITY     CLEAR      8   2  76 NW8       30.64F WCI  -4
SPENCER        CLEAR      5   1  83 W14       30.58S WCI -12
STORM LAKE *   CLEAR      5   1  85 NW10      30.58R WCI -10
$$

IAZ055>058-069>071-079>083-090>094-091000-
   SOUTHWEST IOWA

CITY           SKY/WX    TMP DP  RH WIND       PRES   REMARKS
ATLANTIC *     CLEAR      9   5  85 CALM      30.62S
AUDUBON *      CLEAR      9   5  85 NW6       30.59S WCI  -1
CLARINDA *     CLEAR     10   7  85 CALM      30.66S
COUNCIL BLFS * CLEAR     10   7  85 NW9       30.62S WCI  -2
CRESTON *      CLEAR      9   5  85 NW5       30.60S WCI   0
HARLAN  *      CLEAR      7   3  85 CALM      30.65S
LAMONI         CLEAR     11   6  81 NW8       30.60R WCI  -1
RED OAK *      CLEAR     10   5  79 CALM      30.65R
SHENANDOAH *   CLEAR     10   7  85 CALM      30.66S
$$

IAZ047>049-059>061-072>074-084-091000-
   CENTRAL IOWA

CITY           SKY/WX    TMP DP  RH WIND       PRES   REMARKS
AMES           PTCLDY    12   9  87 NW10      30.59S WCI  -1
ANKENY *       CLEAR     12   7  79 NW9G16    30.62R WCI   0
BOONE *        CLEAR     10   5  79 NW12      30.58R WCI  -4
CHARITON *     CLEAR     12   9  85 NW12      30.58F WCI  -2
DES MOINES     CLEAR     13   7  77 NW10      30.61R WCI   0
GRINNELL*      FLURRIES  17  12  80 NW13      30.56S WCI   4
KNOXVILLE *    MOCLDY    12   7  79 W7        30.58S WCI   2
MARSHALLTOWN   CLOUDY    15   9  76 NW15      30.57R WCI   0
NEWTON *       CLOUDY    16  10  79 NW12      30.57S WCI   3
PELLA *        FLURRIES  15  10  82 NW9       30.59F WCI   3
PERRY *          N/A     11   8  89 NW7       30.61S WCI   0
$$

IAZ004>006-015-016-023>025-035-036-091000-
   NORTH CENTRAL IOWA

CITY           SKY/WX    TMP DP  RH WIND       PRES   REMARKS
ALGONA *       CLOUDY    10   7  85 NW10      30.57R WCI  -3
CLARION *      CLOUDY    14   9  79 N13       30.57S WCI   0
ESTHERVILLE    CLEAR      4   2  91 NW7       30.57R WCI  -8
FORT DODGE *   CLEAR      9   1  72 NW7       30.59S WCI  -3
MASON CITY     CLOUDY    13   8  81 W14       30.56R WCI  -2
WEBSTER CITY * FLURRIES  12   9  85 W15       30.57R WCI  -4
IOWA FALLS *   FLURRIES  15  10  80 NW12      30.57S WCI   2
$$

IAZ007>011-017>019-026>030-037>042-050>054-066-091000-
   NORTHEAST IOWA

CITY           SKY/WX    TMP DP  RH WIND       PRES   REMARKS
CEDAR RAPIDS   CLEAR     14  11  87 NW9       30.54R WCI   2
CHARLES CITY * CLOUDY    14   9  79 W10       30.54R WCI   1
CLINTON *      CLOUDY    18  13  80 NW14      30.53R WCI   4
DECORAH *      CLOUDY    14  10  85 NW7       30.49S WCI   4
DUBUQUE        CLOUDY    16  12  84 NW12      30.49R WCI   3
MONTICELLO *   CLOUDY    16  10  79 NW12      30.52F WCI   3
OELWEIN *      CLOUDY    16  12  86 NW12      30.53R WCI   3
WATERLOO       CLOUDY    16   9  74 NW8       30.54S WCI   5
$$

IAZ064-065-067-068-078-091000-
   EAST CENTRAL IOWA

CITY           SKY/WX    TMP DP  RH WIND       PRES   REMARKS
DAVENPORT      CLOUDY    18  12  77 NW10      30.54R WCI   6
IOWA CITY      FLURRIES  19  12  74 NW12      30.57S WCI   7
MUSCATINE *    CLOUDY    21  12  68 NW13      30.57S WCI   9
QUAD CITIES    CLOUDY    21  11  65 NW10      30.55R WCI  10
$$

IAZ062-063-075>077-085>089-095>099-091000-
   SOUTHEAST IOWA

CITY           SKY/WX    TMP DP  RH WIND       PRES   REMARKS
BURLINGTON     CLOUDY    21  13  71 NW8       30.56R WCI  11
FAIRFIELD *    CLOUDY    19   9  63 NW13G21   30.57R WCI   7
FORT MADISON * CLOUDY    21  12  68 NW14      30.58R WCI   8
KEOKUK *       CLOUDY    23  14  68 NW9       30.58R WCI  13
OSKALOOSA *    FLURRIES  19  12  76 NW10      30.58S WCI   7
CENTERVILLE *    N/A     12   9  85 W7        30.59S WCI   2
OTTUMWA        CLOUDY    20  11  68 NW9       30.57R WCI   9
WASHINGTON *   CLOUDY    19  12  73 NW13G22   30.58R WCI   7
$$

ABBREVIATIONS USED IN REMARKS
   TC - TEMPERATURES IN CELSIUS
  WCI - WIND CHILL INDEX
   HX - HEAT INDEX
  VSB - VISIBILITY
$$





USA.gov is the U.S. government's official web portal to all federal, state and local government web resources and services.